Time[GMT],current_u[cm/s](10m),current_v[cm/s](10m),current_u[cm/s](18m),current_v[cm/s](18m),current_u[cm/s](26m),current_v[cm/s](26m),current_u[cm/s](34m),current_v[cm/s](34m),current_u[cm/s](42m),current_v[cm/s](42m),current_u[cm/s](50m),current_v[cm/s](50m),current_u[cm/s](58m),current_v[cm/s](58m),current_u[cm/s](66m),current_v[cm/s](66m),current_u[cm/s](74m),current_v[cm/s](74m),current_u[cm/s](82m),current_v[cm/s](82m),current_u[cm/s](90m),current_v[cm/s](90m),current_u[cm/s](98m),current_v[cm/s](98m)
2003-09-26 00:00,9.54,21.82,5.07,14.67,-8.64,18.99,-6.59,23.50,-5.48,28.35,-5.85,30.54,0.03,36.88,0.04,41.91,-1.27,43.07,-1.34,42.31,-5.50,39.87,-8.81,35.69
2003-09-26 01:00,-6.03,31.12,-10.72,32.06,-13.24,21.33,-11.58,19.02,-9.93,27.18,-9.05,36.46,-3.64,34.90,-0.41,33.60,1.79,32.92,0.44,31.87,-0.56,29.05,-2.81,25.83
2003-09-26 02:00,1.96,4.80,-2.51,10.74,-11.72,16.77,-17.31,20.27,-12.06,23.58,-9.32,24.54,-5.43,22.82,-1.20,24.03,-0.96,24.94,-2.16,23.73,-4.46,25.42,-3.20,25.40
2003-09-26 03:00,-1.04,-4.72,-2.41,9.09,-3.94,11.65,-8.46,15.38,-6.23,14.29,-5.41,9.63,-4.42,5.12,-1.22,2.24,1.27,1.97,1.98,4.39,2.82,3.39,4.36,3.14
2003-09-26 04:00,-7.16,-6.94,-3.74,2.60,-6.66,6.93,-5.52,5.61,0.85,4.35,6.06,0.73,6.79,-0.61,2.52,1.31,1.58,-1.71,4.87,-1.84,8.53,-3.84,7.39,-8.59
2003-09-26 05:00,-0.47,-14.29,-1.50,-11.99,-3.88,-13.78,-2.86,-16.71,-1.17,-17.75,0.92,-18.77,1.90,-17.21,4.17,-16.09,9.67,-19.61,11.86,-22.28,8.49,-21.87,4.04,-21.05
2003-09-26 08:00,4.76,-23.34,3.72,-18.32,5.37,-17.91,2.39,-24.81,-4.79,-24.64,-5.40,-23.36,-0.76,-25.48,2.76,-25.33,5.57,-21.93,7.23,-21.21,5.38,-20.63,6.75,-20.00
2003-09-26 09:00,7.69,-18.97,9.27,-2.87,9.11,-1.35,5.73,-10.99,1.89,-11.46,2.85,-11.16,0.00,-11.10,-1.54,-10.85,0.08,-12.02,2.71,-13.40,5.81,-11.91,7.82,-8.98
2003-09-26 10:00,-8.54,-8.21,5.65,-0.33,7.28,-1.50,4.38,2.41,2.34,3.24,2.03,1.89,1.11,6.53,-0.88,8.21,-1.98,5.67,-2.48,3.94,-0.27,3.90,-0.14,5.82
2003-09-26 11:00,-0.45,20.28,5.45,19.82,4.97,27.42,0.82,22.25,1.31,21.67,4.00,23.14,4.94,25.84,3.25,31.60,1.26,33.28,-0.15,35.46,-1.72,36.12,-2.30,33.95
2003-09-26 12:00,-8.71,29.65,2.74,31.54,-2.92,34.60,0.41,35.01,1.59,38.94,-1.59,42.76,-3.24,47.06,-5.16,50.87,-5.25,52.83,-5.63,49.36,-6.17,46.36,-8.10,44.50
2003-09-26 14:00,-13.40,45.05,-9.48,37.16,-6.11,33.08,1.34,35.71,-0.30,38.97,2.35,40.22,2.12,36.90,0.40,34.69,-2.22,34.71,-1.83,35.46,-1.45,33.90,1.08,29.14
2003-09-26 16:00,8.89,1.72,6.14,5.16,5.39,7.23,7.03,5.33,5.65,-0.33,5.34,-5.04,5.69,1.25,0.08,3.79,-1.72,2.82,0.86,4.98,3.27,5.63,1.69,2.31
2003-09-26 17:00,-2.26,-4.16,1.12,-5.94,4.54,-4.14,4.98,-5.89,2.05,-16.01,2.44,-9.51,-1.00,-5.55,-2.53,-8.02,-2.53,-8.02,0.91,-6.94,4.26,-3.91,4.69,-5.98
2003-09-26 19:00,9.68,-27.04,7.10,-34.55,-3.47,-37.63,-4.56,-38.81,0.32,-31.64,6.71,-26.92,11.38,-30.81,11.95,-30.63,8.20,-30.02,3.91,-32.40,3.39,-34.76,5.48,-31.71
2003-09-26 20:00,10.49,-25.95,5.51,-26.77,4.43,-25.33,5.25,-22.24,5.08,-24.71,7.57,-28.33,7.67,-27.99,6.29,-28.94,2.36,-29.11,0.73,-25.54,1.14,-23.84,1.79,-21.54
2003-09-26 21:00,12.56,-31.59,4.71,-24.19,4.95,-12.18,-0.52,-10.11,-3.37,-9.01,0.60,-13.01,2.75,-14.22,1.08,-13.91,2.72,-9.73,2.15,-8.23,4.75,-9.52,6.55,-7.91
2003-09-26 22:00,5.87,-14.82,2.94,-12.80,0.57,-7.89,4.63,2.28,3.03,6.08,1.35,4.40,-2.41,6.06,-4.56,7.59,-3.29,6.52,-0.55,7.48,0.53,6.03,1.86,6.13
2003-09-26 23:00,-4.61,5.06,-4.48,11.70,-1.53,13.66,3.62,23.02,3.19,27.07,-2.06,28.48,-2.83,24.88,-4.68,25.46,-4.74,29.00,-4.08,30.25,-6.28,29.57,-8.88,30.86
2003-09-27 00:00,-4.69,17.08,-2.90,22.77,0.60,23.96,-1.02,32.88,-6.09,35.70,-8.62,36.07,-7.49,35.48,-6.50,36.00,-2.56,39.84,0.16,44.56,-1.77,45.01,-2.57,42.88
2003-09-27 01:00,-7.72,33.21,-2.38,31.52,1.28,32.55,0.98,36.86,-0.24,45.49,-2.67,50.28,-5.77,53.50,-7.04,54.89,-4.44,55.28,-1.94,53.65,-2.64,50.50,-4.97,47.57
2003-09-27 03:00,-10.70,23.27,-10.03,20.76,-7.12,20.51,-3.82,22.69,-6.45,22.39,-9.50,26.47,-7.91,23.72,-8.89,22.47,-10.37,22.54,-8.98,19.41,-6.63,15.22,-3.70,11.21
2003-09-27 04:00,7.60,2.16,5.28,2.90,3.97,0.71,5.00,3.44,4.05,6.50,2.28,11.50,-3.61,13.96,-8.75,11.62,-9.53,14.11,-6.10,11.19,-2.87,9.89,0.02,9.01
2003-09-27 05:00,2.81,-3.31,0.10,-2.69,0.84,-2.36,1.95,2.81,0.31,2.71,-4.85,1.11,-6.08,-5.35,-12.06,-7.00,-9.28,-10.22,-2.80,-5.80,2.00,-4.40,4.30,-6.41
2003-09-27 06:00,3.31,-27.46,2.93,-21.19,3.92,-17.63,5.10,-17.05,0.23,-18.57,-3.71,-21.05,-4.17,-20.57,-2.54,-21.11,3.76,-20.82,7.31,-20.45,5.50,-25.73,4.10,-27.95
2003-09-27 07:00,7.10,-34.55,6.34,-26.41,3.95,-27.47,3.64,-31.86,3.74,-34.55,4.84,-36.72,4.73,-36.02,5.76,-33.29,7.70,-31.43,9.10,-29.22,5.53,-30.54,2.72,-30.58
2003-09-27 08:00,9.86,-40.08,9.13,-37.38,2.58,-32.82,-2.36,-28.07,-2.21,-28.55,0.92,-28.83,2.15,-27.09,7.17,-27.41,9.92,-27.49,9.34,-26.63,6.45,-27.11,8.65,-26.42
2003-09-27 09:00,8.79,-25.54,9.19,-26.47,4.41,-18.53,1.68,-12.78,-0.42,-13.43,-6.39,-14.45,-4.44,-15.00,0.34,-13.20,0.68,-15.29,1.45,-14.42,1.51,-12.93,2.07,-10.35
2003-09-27 10:00,-1.98,-15.17,5.85,-17.45,2.92,-7.36,4.31,1.97,1.82,0.88,-0.84,-1.00,2.38,-1.25,3.10,0.13,0.63,-0.01,-2.76,1.13,-3.32,1.58,-1.01,4.92
2003-09-27 11:00,-4.79,-11.86,-7.22,10.74,-2.23,16.59,-2.13,17.25,-8.02,15.31,-1.94,9.24,1.49,9.68,-0.30,15.41,1.99,20.84,1.22,21.64,1.34,24.30,2.72,25.57
2003-09-27 12:00,-7.56,1.41,-8.85,19.66,-5.19,22.37,-2.96,31.02,-3.72,32.46,-6.32,30.71,-6.06,35.92,-4.49,43.33,-6.53,44.16,-6.16,45.00,-5.36,45.78,-3.48,44.79
2003-09-27 13:00,-17.25,25.11,-13.71,34.59,-9.98,35.75,-0.82,44.99,-2.43,53.18,-6.48,56.11,-6.10,56.23,-6.55,52.63,-9.87,47.83,-12.05,46.42,-14.15,47.44,-16.99,47.81
2003-09-27 14:00,-12.32,29.47,-10.28,26.96,-8.46,24.81,-6.32,27.36,-3.22,33.88,-1.83,44.89,-7.75,47.76,-8.71,47.46,-6.25,50.32,-6.26,49.69,-6.75,45.55,-6.35,43.58
2003-09-27 15:00,-8.50,22.91,-4.83,22.58,-0.64,23.58,1.93,24.06,-0.50,24.46,-3.56,29.26,-5.97,30.61,-7.42,29.53,-7.07,26.08,-6.24,26.44,-5.83,26.46,-6.89,24.14
2003-09-27 16:00,2.11,6.00,5.56,7.70,6.70,11.10,6.22,13.98,2.00,17.80,-3.70,20.63,-9.86,21.23,-9.42,22.83,-9.22,23.21,-8.27,23.19,-6.54,21.32,-1.59,16.89
2003-09-27 17:00,2.31,-14.15,5.83,-7.61,5.07,-1.14,5.01,8.79,2.56,9.60,2.42,15.42,3.01,14.87,0.66,10.99,-1.56,7.69,-0.82,8.33,4.21,8.33,7.71,7.85
2003-09-27 18:00,-8.40,-27.86,-3.34,-19.89,0.98,-11.22,4.05,-2.93,5.68,5.96,5.25,3.31,0.22,-0.04,-0.67,-6.91,1.69,-7.12,3.28,-3.48,2.68,-3.56,-1.27,-11.39
2003-09-27 19:00,4.69,-42.63,3.59,-29.36,2.86,-21.63,4.77,-16.32,2.27,-16.37,0.31,-22.53,-0.02,-24.83,-1.16,-26.55,-1.32,-29.74,1.07,-30.67,2.88,-28.43,0.90,-28.10
2003-09-27 20:00,3.13,-49.40,7.41,-39.59,8.59,-32.62,5.43,-32.24,3.13,-34.95,4.37,-31.53,3.82,-32.12,6.85,-34.11,7.79,-30.04,4.60,-31.25,2.72,-31.94,4.90,-30.21
2003-09-27 21:00,5.52,-46.98,2.05,-28.79,5.84,-21.43,-0.98,-19.05,-3.29,-19.04,-1.08,-19.40,4.37,-17.07,7.92,-25.08,7.13,-21.55,5.44,-22.50,6.76,-19.36,8.20,-16.93
2003-09-27 22:00,2.22,-26.64,-2.56,-9.28,4.16,-2.58,-4.52,-3.29,-5.86,-3.39,-5.48,-6.63,-2.52,-4.35,-5.61,-5.52,-8.05,-7.12,-6.91,-5.40,-4.59,-4.78,-2.03,-3.25
2003-09-28 00:00,4.70,-3.67,-0.69,11.31,3.22,17.24,6.64,22.07,-0.82,21.11,-3.82,19.34,-5.21,19.43,-4.92,23.19,-5.12,22.49,-6.22,24.35,-2.87,25.71,-0.18,26.13
2003-09-28 01:00,-11.49,14.02,-7.58,24.35,-2.23,22.98,4.79,29.67,1.91,35.58,-1.31,37.82,-5.78,40.41,-3.72,42.20,-3.35,43.37,-4.33,43.48,-1.99,41.69,1.15,39.01
2003-09-28 02:00,-14.92,26.04,-14.83,30.47,-7.90,30.74,-9.00,31.24,-7.96,34.29,-2.34,43.16,-5.73,49.33,-2.11,51.50,-1.64,49.97,-4.80,48.04,-5.26,47.17,-4.89,45.29
2003-09-28 03:00,-1.11,30.13,-6.40,28.28,-4.59,22.14,-4.44,21.98,-2.94,23.91,-1.67,25.87,-3.21,28.12,-5.82,30.13,-4.61,28.94,-1.82,32.74,1.62,32.13,3.11,29.35
2003-09-28 04:00,5.75,10.80,-2.10,17.15,-7.90,21.00,-11.53,24.90,-10.72,22.32,-13.41,17.50,-13.39,14.06,-14.20,12.96,-13.98,10.94,-13.56,11.59,-12.16,11.82,-7.05,11.21
2003-09-28 05:00,-4.39,-12.47,-8.69,3.37,-12.52,14.64,-18.63,20.49,-21.89,20.83,-18.97,19.54,-15.94,17.55,-13.07,17.09,-8.62,16.59,-7.04,14.88,-5.09,14.33,-3.93,10.93
2003-09-28 06:00,-7.85,-14.80,-8.60,0.36,-8.92,3.09,-6.93,4.44,-2.93,4.01,-1.53,1.20,4.03,-2.52,6.09,-2.40,2.96,-3.79,-0.07,-5.15,-2.21,-6.35,-3.40,-10.59
2003-09-28 07:00,0.51,-34.93,0.74,-15.17,-1.07,-11.02,2.13,-10.54,2.46,-12.95,-0.23,-15.05,-0.04,-18.03,1.41,-21.35,4.05,-27.12,1.58,-28.94,-1.02,-30.69,-1.19,-29.49
2003-09-28 08:00,-3.05,-35.93,6.97,-20.35,3.74,-26.80,-0.99,-37.18,1.03,-35.92,2.54,-34.72,6.88,-34.52,6.72,-34.36,5.17,-37.77,-0.64,-41.67,-3.65,-39.05,-1.69,-31.22
2003-09-28 09:00,-1.73,-42.85,6.27,-29.89,7.66,-23.91,1.33,-33.52,4.39,-33.61,9.10,-36.96,10.61,-37.75,8.95,-38.48,5.79,-36.42,3.16,-35.04,3.69,-32.68,5.96,-28.20
2003-09-28 10:00,5.40,-33.82,0.28,-25.78,3.39,-12.56,3.57,-8.10,-5.11,-15.21,-4.39,-14.15,-0.40,-16.88,-0.08,-16.57,-1.63,-16.64,-3.64,-16.22,-1.20,-14.30,2.55,-11.56
2003-09-28 11:00,-8.02,-15.28,-6.84,-2.24,7.61,9.18,9.11,11.43,2.92,7.09,-3.41,0.51,-3.33,-0.41,-3.83,-0.15,-3.57,0.36,-2.31,3.37,-3.07,3.13,-2.35,1.15
2003-09-28 12:00,-15.80,5.66,-4.14,11.28,3.92,17.67,5.56,18.80,3.40,15.30,7.78,11.01,2.91,14.52,-3.38,16.23,-1.67,16.45,2.52,18.80,2.82,19.21,3.02,16.86
2003-09-28 13:00,-11.90,15.67,-2.67,18.65,4.83,20.46,-0.95,25.58,-8.61,30.00,-8.85,25.73,-7.00,26.83,-7.54,29.60,-5.88,32.00,-3.23,33.56,0.82,33.35,1.89,29.92
2003-09-28 15:00,-6.32,27.67,-16.18,35.81,-22.64,33.69,-22.10,29.25,-19.85,31.10,-15.80,31.21,-17.52,33.40,-12.60,34.41,-9.42,33.62,-6.79,32.55,-5.65,29.56,-4.34,25.04
2003-09-28 17:00,-3.04,-9.74,-7.76,12.14,-14.29,17.96,-14.73,18.04,-13.45,17.28,-10.46,17.79,-9.57,13.57,-8.44,9.62,-8.07,3.04,-5.58,1.09,-4.29,0.34,-3.26,-0.28
2003-09-28 18:00,-12.43,4.61,-10.79,9.42,-7.07,10.58,-2.44,11.18,1.63,4.17,4.11,-5.11,5.56,-6.75,5.12,-8.04,4.83,-8.45,4.57,-11.98,5.40,-14.66,1.39,-17.90
2003-09-28 19:00,-5.46,-23.49,-8.08,-10.37,-5.09,-11.22,-3.15,-9.05,-2.05,-14.26,-3.91,-18.39,-0.58,-24.37,2.67,-29.44,2.88,-35.13,1.35,-34.25,-0.10,-33.65,-0.38,-33.74
2003-09-28 20:00,4.95,-37.42,6.93,-26.96,6.05,-33.20,0.00,-41.37,0.68,-43.88,5.41,-41.26,13.00,-43.08,12.01,-43.60,9.35,-45.16,4.79,-47.32,0.71,-45.65,1.02,-40.95
2003-09-28 21:00,-1.54,-47.51,-1.52,-33.78,-6.41,-40.96,-4.92,-40.70,1.29,-40.45,8.07,-43.05,7.26,-43.82,2.08,-41.98,-2.64,-40.62,-2.82,-38.37,-1.06,-35.94,1.68,-31.95
2003-09-28 22:00,4.34,-45.88,7.66,-36.37,12.74,-30.49,3.73,-32.15,-2.07,-31.02,0.62,-29.24,4.41,-34.34,4.74,-36.75,4.91,-34.92,3.51,-35.15,3.18,-32.42,4.27,-28.52
2003-09-28 23:00,1.07,-21.24,2.54,-16.91,-3.76,-10.81,-6.28,-7.40,-6.59,-8.76,-8.35,-14.23,-5.24,-12.42,-4.14,-10.92,-2.08,-9.45,-0.63,-8.05,5.10,-5.95,7.45,-5.43
2003-09-29 00:00,-1.82,-4.23,3.09,-1.86,5.82,3.17,3.81,7.26,4.48,5.79,4.25,3.84,-0.24,2.12,-6.54,1.84,-5.09,1.87,-0.22,1.71,1.86,1.10,3.51,0.15
2003-09-29 01:00,-0.98,12.58,-3.24,10.72,1.16,13.77,6.40,16.45,1.70,15.72,-1.47,15.15,-2.45,15.26,-6.26,14.70,-7.07,16.97,-7.09,18.74,-6.66,18.03,-6.35,14.99
2003-09-29 02:00,-10.51,25.32,-4.10,27.63,-1.61,24.01,1.41,31.13,-2.65,32.06,-4.98,31.44,-1.39,33.40,-0.05,34.44,2.31,36.64,4.21,38.60,3.20,36.82,3.05,32.58
2003-09-29 03:00,-6.33,27.04,-8.75,26.08,-5.43,22.82,-5.27,24.65,-4.21,28.64,-8.45,37.90,-11.82,41.98,-8.77,42.62,-6.33,42.86,-3.23,46.02,-2.47,44.58,-3.53,40.59
2003-09-29 04:00,-3.42,23.76,-10.54,23.42,-9.08,22.10,-9.63,21.82,-6.98,21.08,-4.87,25.40,-2.41,28.58,-1.24,28.21,0.03,28.81,-1.58,28.62,-3.04,28.59,-3.57,27.27
2003-09-29 05:00,6.22,-6.86,-3.13,3.32,-7.25,20.58,-14.05,23.59,-16.71,17.00,-12.47,17.17,-5.97,18.15,-4.30,14.48,-2.37,12.98,0.50,13.88,3.92,10.96,4.67,9.21
2003-09-29 06:00,-3.73,1.88,-6.69,11.74,-9.93,16.07,-8.50,18.20,-10.51,9.19,-8.25,1.62,-3.47,-2.65,-1.20,-1.53,0.51,-2.98,2.15,-3.21,2.80,-5.31,-1.16,-9.05
2003-09-29 07:00,-2.04,-10.27,-2.70,-5.13,-0.36,0.83,-0.41,-6.10,-0.85,-12.73,2.56,-14.60,5.25,-12.82,6.74,-20.63,7.41,-26.81,6.86,-27.08,5.08,-26.38,2.45,-25.00
2003-09-29 08:00,1.02,-23.46,4.74,-13.19,4.06,-20.10,2.62,-32.28,3.38,-32.04,4.81,-30.24,6.12,-34.12,5.69,-35.41,4.78,-36.53,1.71,-38.12,1.26,-38.36,1.57,-35.65
2003-09-29 09:00,11.75,-31.01,3.54,-36.92,-1.31,-38.85,-0.66,-38.23,2.37,-36.86,12.21,-41.55,13.67,-42.88,10.91,-41.74,6.13,-43.23,0.85,-43.41,0.93,-39.30,2.04,-35.81
2003-09-29 10:00,3.93,-33.13,2.95,-25.27,-3.42,-25.68,-0.97,-26.49,5.24,-32.62,8.75,-32.47,7.53,-31.59,4.88,-31.47,1.24,-30.20,1.07,-27.63,2.81,-24.16,5.63,-20.77
2003-09-29 11:00,-0.81,-26.65,0.82,-19.12,-1.62,-16.32,-2.80,-16.58,-1.91,-18.09,3.55,-25.18,0.20,-25.18,-1.95,-23.34,-1.10,-22.02,-3.32,-22.30,-3.30,-19.67,-2.45,-15.32
2003-09-29 12:00,-3.53,-4.14,3.83,0.15,11.33,4.99,7.58,5.61,0.83,2.04,-6.94,-0.91,-8.07,-1.67,-11.44,-1.26,-9.95,0.67,-5.17,-0.88,-1.70,-0.95,1.68,-0.00
2003-09-29 13:00,-14.26,6.77,-5.23,9.05,4.80,17.21,6.35,20.31,4.67,18.63,-0.52,18.48,-6.40,17.17,-0.64,23.58,1.12,19.62,2.20,18.49,4.22,19.75,7.27,18.71
2003-09-29 14:00,-8.27,18.48,-3.14,18.50,0.95,23.86,-6.13,30.77,-9.56,29.70,-11.39,31.54,-7.96,35.65,-4.12,36.42,-4.75,38.11,-4.85,39.44,-3.80,38.09,-2.64,34.37
2003-09-29 16:00,8.41,16.03,8.41,16.03,8.41,16.03,8.41,16.03,8.41,16.03,8.41,16.03,8.41,16.03,8.41,16.03,8.41,16.03,8.41,16.03,8.41,16.03,8.41,16.03
2003-09-29 17:00,1.29,1.24,-6.12,13.60,-9.88,15.57,-8.36,14.05,-4.97,15.94,-8.80,15.80,-8.69,22.85,-10.25,28.86,-9.27,28.43,-4.66,26.41,1.87,23.94,2.61,21.55
2003-09-29 19:00,8.41,16.03,8.41,16.03,8.41,16.03,8.41,16.03,8.41,16.03,8.41,16.03,8.41,16.03,8.41,16.03,8.41,16.03,8.41,16.03,8.41,16.03,8.41,16.03
2003-09-29 20:00,-2.78,-22.34,0.36,-18.64,-1.57,-18.82,-3.49,-21.09,-2.87,-25.09,-3.78,-28.20,-0.60,-22.29,6.59,-23.19,9.57,-27.71,8.35,-30.50,4.67,-29.13,2.31,-27.25
2003-09-29 21:00,4.75,-36.44,2.92,-34.60,2.31,-38.03,2.16,-37.87,4.38,-34.25,9.11,-35.29,9.89,-40.18,7.28,-39.84,4.48,-40.29,-0.23,-38.61,-0.65,-39.27,1.59,-36.06
2003-09-29 22:00,7.82,-40.92,1.91,-28.31,-0.62,-27.95,4.31,-26.62,7.70,-31.43,10.72,-33.42,5.13,-31.60,0.72,-30.57,-0.03,-28.50,0.71,-24.81,3.87,-23.20,5.29,-20.35
2003-09-29 23:00,-21.28,-23.49,-2.57,-23.01,2.43,-21.24,0.53,-16.49,-1.69,-16.76,0.47,-19.33,4.66,-21.69,4.39,-21.15,2.70,-21.78,1.11,-20.39,1.64,-17.71,1.63,-16.67
2003-09-30 00:00,-5.59,-5.93,0.27,-3.90,3.30,0.50,2.55,1.21,-0.35,3.14,-2.09,-0.02,-2.03,-1.89,-0.17,-0.79,0.15,-0.16,2.63,0.30,4.02,1.57,5.94,1.43
2003-09-30 01:00,-8.59,0.68,1.73,7.56,4.78,9.87,2.50,15.86,-0.34,16.55,-6.67,16.36,-9.09,18.75,-8.60,16.17,-7.65,14.48,-3.56,15.13,-0.65,16.55,1.02,16.24
2003-09-30 02:00,-2.45,15.26,1.67,15.81,3.56,12.11,0.97,18.74,-2.96,21.28,-5.63,19.41,-8.48,20.82,-5.01,25.15,-2.48,25.10,-2.78,25.74,-2.70,26.50,-2.69,23.78
2003-09-30 03:00,-5.23,26.55,-4.58,27.48,-7.23,30.95,-9.96,37.01,-10.90,38.71,-8.59,42.05,-8.05,50.07,-7.29,51.67,-7.40,51.32,-7.11,53.09,-7.78,52.88,-7.30,51.35
2003-09-30 04:00,-2.63,26.94,-8.02,24.73,-5.96,23.18,-6.61,23.92,-6.45,27.42,-9.22,43.74,-7.47,47.53,-4.08,49.74,-3.17,50.54,-3.20,49.28,-4.10,45.12,-4.57,40.89
2003-09-30 05:00,-6.26,14.39,-6.95,26.01,-13.82,28.90,-11.86,28.99,-10.72,35.42,-7.94,33.56,-4.27,36.58,1.26,41.03,-0.76,38.10,-1.18,34.72,-1.08,33.07,-4.45,30.77
2003-09-30 06:00,-0.36,-5.24,-5.68,10.49,-5.86,15.46,-2.85,17.55,-0.68,18.33,-0.71,23.13,0.91,26.99,0.89,29.08,-0.06,25.75,-0.32,23.57,1.32,23.35,2.39,21.90
2003-09-30 07:00,-3.46,-4.01,-1.91,-0.59,-2.12,3.11,-7.63,6.00,-8.56,11.68,-5.99,15.21,-6.29,13.12,-7.94,11.04,-4.29,13.12,2.61,13.49,2.71,10.48,-4.42,5.12
2003-09-30 08:00,-7.73,-16.55,-4.74,-1.27,-3.48,-4.96,-1.05,-2.00,1.71,1.90,0.71,-2.29,-0.84,-4.03,0.33,-4.09,6.42,-3.13,6.40,-6.07,3.88,-6.75,1.52,-7.91
2003-09-30 09:00,0.41,-25.53,-0.60,-14.22,3.55,-20.15,3.11,-18.41,2.38,-17.06,1.98,-15.09,1.83,-12.94,0.43,-16.84,1.05,-18.84,1.18,-20.27,-2.19,-21.21,-3.68,-21.47
2003-09-30 10:00,7.26,-29.37,5.96,-15.43,4.54,-19.95,3.69,-31.01,3.93,-26.74,6.29,-27.58,7.42,-26.18,7.59,-25.39,5.20,-23.41,2.48,-21.75,3.13,-19.45,4.57,-15.02
2003-09-30 11:00,-6.87,-30.73,0.57,-17.63,-5.12,-22.23,-7.59,-20.69,-7.95,-21.54,-4.18,-22.56,-0.45,-24.44,1.42,-27.42,-2.29,-23.23,-2.93,-18.51,-3.85,-18.90,-2.49,-18.58
2003-09-30 13:00,-9.78,-14.67,1.58,1.33,10.81,2.63,4.83,2.97,-7.37,3.15,-6.98,5.26,-6.37,3.98,-4.01,5.14,-0.78,3.53,0.10,8.10,0.94,10.77,0.22,16.09
2003-09-30 14:00,-7.30,13.33,4.94,18.09,3.18,21.41,-0.16,25.40,-3.61,23.70,-6.16,25.84,-8.48,29.93,-7.51,31.18,-5.19,31.80,-3.69,32.37,-4.45,33.80,-4.45,33.80
2003-09-30 15:00,-6.57,27.49,-2.31,20.86,-0.10,26.89,-4.59,31.56,-5.81,34.12,-2.60,36.58,0.67,44.93,2.46,50.62,4.32,52.04,2.31,52.77,-1.30,50.92,-4.32,47.15
2003-09-30 17:00,-5.17,0.80,-9.63,15.44,-7.82,17.04,-8.97,13.34,-11.33,20.56,-13.03,28.72,-10.33,27.79,-6.81,29.61,-2.77,30.77,-1.42,28.78,-2.12,25.31,-2.01,23.26
2003-09-30 18:00,-3.33,18.76,-7.73,15.40,-10.39,18.23,-8.48,23.86,-8.14,24.80,-10.23,28.13,-11.09,29.54,-12.98,31.25,-12.13,29.53,-9.86,30.65,-5.19,30.12,-1.23,22.45
2003-09-30 19:00,8.41,16.03,8.41,16.03,8.41,16.03,8.41,16.03,8.41,16.03,8.41,16.03,8.41,16.03,8.41,16.03,8.41,16.03,8.41,16.03,8.41,16.03,8.41,16.03
2003-09-30 20:00,0.71,-29.84,-6.20,-24.14,-1.52,-22.68,-4.40,-19.17,-8.59,-15.14,-7.00,-16.53,-5.58,-19.75,-3.03,-18.85,-2.66,-14.34,-2.68,-15.29,-5.24,-18.81,-6.41,-21.79
2003-09-30 21:00,12.73,-37.51,5.59,-27.69,0.97,-21.27,-0.04,-19.70,1.12,-18.71,1.88,-16.80,2.45,-19.97,3.27,-21.92,4.93,-21.19,7.10,-18.42,3.98,-19.18,2.33,-16.56
2003-09-30 23:00,1.76,-35.59,2.82,-25.20,3.54,-25.50,3.59,-23.29,8.26,-25.18,14.35,-26.22,15.79,-23.78,12.78,-19.17,12.10,-16.66,12.40,-15.93,14.37,-16.89,14.59,-15.57
2003-10-01 00:00,1.67,-30.59,-6.79,-18.56,-3.87,-16.50,-2.72,-16.14,-3.87,-15.14,-3.03,-17.18,-1.58,-17.46,-1.24,-16.20,-1.76,-15.21,-2.09,-12.80,-0.12,-11.04,2.96,-10.18
2003-10-01 01:00,-5.43,-10.49,0.47,-5.20,12.23,-0.59,9.61,-1.93,6.17,-6.04,4.28,-6.00,5.20,-4.25,5.43,-3.65,4.23,-0.46,5.36,0.94,6.13,1.18,6.61,1.64
2003-10-01 02:00,-11.98,6.53,-2.42,7.10,7.39,13.61,4.72,16.45,-2.61,11.75,-5.22,11.36,-4.57,11.98,-2.63,14.16,-2.96,15.21,-1.68,17.18,0.35,20.74,-0.29,23.79
2003-10-01 03:00,-6.05,15.71,-0.34,14.56,2.24,15.68,-2.93,19.51,-7.64,19.82,-4.73,22.93,-3.99,26.93,-2.51,29.91,-1.14,33.26,0.13,36.91,-0.78,38.82,-2.92,36.27
2003-10-01 04:00,-9.50,26.79,-3.45,25.21,-2.86,23.30,-7.08,30.79,-7.58,34.09,-6.56,37.86,-5.52,47.30,-0.26,50.61,2.13,53.03,1.68,54.46,-0.63,54.48,-4.95,53.55
2003-10-01 06:00,-6.55,12.62,-7.83,15.05,-4.02,10.90,-4.69,20.11,-8.99,26.84,-6.58,28.85,-3.19,33.78,-1.10,32.13,-1.47,27.93,1.42,26.73,4.25,26.04,2.70,24.30
2003-10-01 07:00,4.13,12.29,0.61,11.82,0.77,13.33,-0.60,17.41,-7.92,23.40,-7.66,26.63,-6.16,30.55,-4.10,27.95,-3.96,23.80,-2.36,24.72,3.24,27.61,0.68,23.04
2003-10-01 08:00,-5.10,-9.86,-1.70,1.77,-0.95,3.37,2.05,4.51,1.67,4.71,1.22,5.51,-2.56,3.50,-7.37,0.11,-0.56,3.81,7.86,5.70,6.95,4.26,0.52,3.72
2003-10-01 09:00,0.04,-17.27,-4.20,-9.06,-1.13,-7.79,3.66,-11.43,0.81,-6.97,-1.19,-8.96,-3.69,-14.03,-3.68,-16.44,1.78,-12.43,2.87,-8.22,1.21,-10.94,1.18,-8.85
2003-10-01 10:00,0.73,-23.86,1.95,-19.71,1.49,-20.59,0.55,-19.94,2.01,-18.23,2.46,-14.95,-2.55,-13.99,-2.85,-14.40,0.07,-15.37,0.77,-18.61,-3.24,-16.83,-4.33,-16.01
2003-10-01 11:00,1.30,-28.71,2.18,-17.76,-0.55,-18.08,0.22,-17.84,0.18,-18.06,-1.78,-19.83,2.26,-23.39,3.56,-21.51,0.58,-20.35,-2.83,-20.15,0.80,-15.36,3.87,-10.74
2003-10-01 12:00,5.48,-18.61,9.19,-15.05,11.87,-10.55,3.33,-10.69,-2.32,-13.40,-1.69,-12.05,1.10,-13.27,4.52,-14.51,4.26,-9.98,3.36,-7.75,2.96,-7.14,1.66,-5.66
2003-10-01 13:00,6.94,-15.22,7.26,-10.52,10.06,-3.05,4.02,-2.83,0.96,-2.74,-0.74,-2.33,0.96,-2.74,4.24,-1.51,3.98,3.02,6.34,3.86,7.82,3.80,6.12,7.25
2003-10-01 14:00,-2.95,-6.68,2.57,5.20,5.28,9.29,2.49,10.51,-3.39,9.52,-1.50,10.53,-1.37,12.14,0.78,13.96,3.61,16.00,4.61,17.15,2.93,18.51,1.30,21.04
2003-10-01 15:00,-4.15,5.93,-2.16,15.35,-0.59,18.04,-1.25,18.15,-0.57,22.34,-0.75,27.63,-3.63,30.82,-0.97,29.02,-1.97,28.19,-1.69,31.00,-1.77,34.95,-0.75,35.38
2003-10-01 16:00,-9.46,23.66,-6.41,24.61,-8.00,27.04,-4.55,35.45,-3.78,36.01,-7.34,36.68,-10.11,37.17,-11.25,37.13,-7.82,44.28,-4.62,49.15,-3.24,47.06,-4.16,45.63
2003-10-01 17:00,1.32,31.41,-4.17,27.50,-5.94,27.48,-10.97,29.16,-10.90,34.31,-6.65,44.22,-7.12,47.74,-6.28,47.06,-3.19,49.59,-2.61,45.69,-4.11,43.13,-6.10,41.78
2003-10-01 19:00,3.98,4.70,-2.15,15.98,-3.34,21.16,-6.53,20.28,-6.64,25.69,-4.66,23.37,-5.97,22.54,-6.67,27.14,-6.29,25.59,-3.86,25.51,0.33,24.82,5.23,22.89
2003-10-01 20:00,-2.20,-13.78,-2.98,-0.51,-4.63,0.76,-7.99,7.15,-3.99,4.73,-2.64,7.45,-6.99,9.34,-8.62,7.16,-10.58,5.40,-8.00,6.52,-3.57,9.78,1.08,11.33
2003-10-01 21:00,-6.80,-9.45,-5.53,-1.41,-8.46,2.60,-5.11,-1.07,-2.61,-5.74,-0.89,-3.52,-2.12,-3.28,-2.34,-3.24,1.80,-6.46,3.02,-5.66,-0.72,-5.77,-2.49,-5.80
2003-10-01 22:00,-2.41,-25.89,-4.16,-10.20,-4.56,-12.94,-7.15,-20.77,-6.17,-19.52,-7.58,-18.70,-5.66,-16.11,-1.55,-12.84,0.45,-14.21,2.06,-14.34,-0.34,-15.71,-1.17,-12.72
2003-10-01 23:00,4.96,-21.29,4.98,-18.66,3.32,-24.10,0.49,-34.20,-3.06,-36.25,-0.66,-30.16,2.73,-26.59,6.07,-27.23,5.65,-27.88,1.40,-26.69,2.33,-21.27,1.16,-17.86
2003-10-02 00:00,8.41,16.03,8.41,16.03,8.41,16.03,8.41,16.03,8.41,16.03,8.41,16.03,8.41,16.03,8.41,16.03,8.41,16.03,8.41,16.03,8.41,16.03,8.41,16.03
2003-10-02 01:00,,,566.64,,911.42,,-174.00,578.84,-94.78,-536.04,562.83,,392.34,,79.42,-320.90,397.55,,-11.93,-27.60,260.52,-988.44,254.51,-883.06
2003-10-02 02:00,3.23,-9.36,5.86,-2.99,8.10,1.90,4.81,0.03,-3.17,-1.93,-4.39,-1.37,-0.02,0.73,0.37,-0.51,0.70,0.11,2.99,2.50,1.24,5.10,-1.78,10.76
2003-10-02 03:00,-5.16,-0.25,3.55,3.73,4.04,10.90,-1.42,7.94,-6.31,10.18,-5.54,11.05,-4.62,12.49,-4.40,14.13,-2.56,15.96,-2.81,20.80,-6.12,27.73,-7.22,34.62
2003-10-02 04:00,-1.25,13.75,7.30,15.58,7.77,18.44,-0.64,22.22,-3.05,19.89,-3.58,22.24,0.32,25.55,-1.61,29.04,0.46,34.18,2.49,37.75,5.93,42.49,1.27,44.70
2003-10-02 05:00,-1.37,26.60,-7.81,24.07,-6.78,24.80,-9.68,33.43,-12.05,33.32,-11.12,34.03,-8.45,46.28,-2.69,51.01,1.52,54.31,-0.34,53.21,-3.23,51.05,-5.89,52.21
2003-10-02 06:00,-2.66,17.29,-1.74,23.76,-8.30,26.64,-14.98,24.56,-11.08,26.82,-9.66,34.38,-7.68,43.48,-5.26,42.77,-2.25,41.19,0.45,41.93,1.02,42.11,0.80,41.83
2003-10-02 07:00,-4.07,16.43,1.02,16.55,-0.10,18.82,-7.93,21.10,-8.75,24.72,-8.91,33.99,-9.46,31.72,-7.97,28.94,-5.03,28.91,-1.45,28.87,2.13,26.11,2.18,25.29
2003-10-02 08:00,-0.66,-1.57,0.61,5.43,0.78,10.61,-5.19,13.99,-10.77,15.40,-8.06,22.52,-6.07,20.84,-3.97,18.14,-3.83,19.02,-4.61,21.19,-1.20,20.99,1.74,20.65
2003-10-02 09:00,2.75,-9.83,0.33,2.30,-4.55,4.87,-9.79,5.54,-7.76,10.46,-2.51,10.42,-3.55,11.05,-6.60,5.38,-5.20,5.92,0.68,10.58,4.04,10.90,3.44,7.46
2003-10-02 10:00,-3.04,-19.17,1.52,-12.62,-1.37,-7.03,0.39,-5.95,3.49,-8.86,4.17,-11.37,1.91,-10.51,0.89,-9.57,0.12,-9.81,3.91,-7.16,1.29,-8.19,1.51,-5.19
2003-10-02 11:00,1.38,-30.68,-2.84,-14.08,-4.35,-14.97,-3.71,-21.05,-3.86,-20.58,-2.22,-16.09,0.86,-13.87,2.83,-13.47,3.99,-9.44,-4.14,-12.60,-4.91,-11.80,-1.84,-9.90
2003-10-02 12:00,3.27,-33.02,2.46,-19.66,1.19,-18.27,-2.43,-26.84,-2.42,-24.84,-0.31,-20.20,-0.36,-21.37,-1.38,-20.12,-3.28,-20.40,0.15,-21.00,2.09,-15.79,-0.18,-10.53
2003-10-02 13:00,8.70,-28.61,8.90,-17.13,6.02,-15.30,1.94,-15.63,2.68,-18.02,3.17,-18.60,6.88,-21.42,11.80,-14.34,2.67,-13.94,4.28,-13.75,4.60,-12.08,4.39,-10.05
2003-10-02 14:00,0.00,-20.53,1.72,-7.21,9.41,2.41,5.44,3.06,-0.06,0.19,-2.66,-0.20,-4.15,1.22,-4.39,1.98,-2.20,2.35,2.07,2.43,2.72,3.36,-1.63,7.24
2003-10-02 15:00,-5.17,0.80,1.22,7.19,7.73,10.16,3.32,12.55,-1.75,12.02,-4.26,13.02,-1.66,15.09,-2.11,16.52,0.71,16.56,4.16,16.59,5.52,18.58,2.73,19.49
2003-10-02 16:00,-10.68,6.73,0.92,12.85,0.51,17.86,0.41,19.19,-2.21,16.17,-4.39,14.76,-6.40,17.17,-5.99,19.92,-6.14,25.11,-5.62,29.46,-5.29,31.77,-4.76,32.77
2003-10-02 17:00,-2.66,12.58,1.14,19.21,2.71,21.90,0.30,19.89,-3.09,21.35,-1.50,26.35,-0.83,28.23,-0.21,32.30,0.75,39.30,2.14,41.20,1.19,39.23,0.94,38.00
2003-10-02 18:00,8.41,16.03,8.41,16.03,8.41,16.03,8.41,16.03,8.41,16.03,8.41,16.03,8.41,16.03,8.41,16.03,8.41,16.03,8.41,16.03,8.41,16.03,8.41,16.03